Regional Weather Roundup
Issued by NWS Sterling, VA

Home | Current Version | Previous Version | Graphics & Text | Print | Product List | Glossary On
Versions: 1 2 3 4 5 6 7 8 9 10 11 12 13 14 15 16 17 18 19 20 21 22 23 24 25 26 27 28
000
ASUS41 KLWX 261111
RWRLWX

REGIONAL WEATHER ROUNDUP
NATIONAL WEATHER SERVICE BALTIMORE MD/WASHINGTON DC
700 AM EDT WED APR 26 2017

Note: "FAIR" indicates few or no clouds below 12,000 feet
with no significant weather and/or obstructions to visibility.
 TC=TEMPERATURE CELSIUS

 * =Non NWS site. Station does not report precipitation (e.g. rain,
    snow, etc.), thunder, or fog.

DCZ001-MDZ009-015-VAZ040>042-051-053>054-261200-
WASHINGTON METRO

CITY           SKY/WX    TMP DP  RH WIND       PRES   REMARKS
WASHINGTON NAT CLOUDY    59  57  93 N9        29.73R
DULLES         CLOUDY    56  55  97 NW8       29.75R FOG
ANDREWS AFB    CLOUDY    57  56  97 NW9       29.72R
FT BELVOIR     CLOUDY    57  55  94 NW8       29.74R
QUANTICO       CLOUDY    58  57  97 NW8       29.75R
COLLEGE PARK*  CLOUDY    57  55  94 CALM      29.73R
LEESBURG*      CLOUDY    55  55 100 N5        29.76R FOG
MANASSAS*        N/A     57  55  93 NW6       29.75R

$$

MDZ006>007-011-014-261200-
BALTIMORE METRO

CITY           SKY/WX    TMP DP  RH WIND       PRES   REMARKS
BWI AIRPORT    CLOUDY    57  56  96 NW6       29.71R
MD SCIENCE CTR   N/A     59  54  83 MISG      29.71S
MARTIN STATE   CLOUDY    57  57 100 NW6       29.72R
ANNAPOLIS      CLOUDY    59  32  36 N8        29.70R
FORT MEADE*    CLOUDY    55  54  94 NW3       29.75R

$$

MDZ012-015-019>023-261200-
MARYLAND EASTERN SHORE

CITY           SKY/WX    TMP DP  RH WIND       PRES   REMARKS
OCEAN CITY     FOG       55  55 100 CALM      29.67R VSB 3/4
SALISBURY      FOG       57  57 100 W7        29.67R VSB 1/2
BAY BRIDGE AP* CLOUDY    57  55  94 N8        29.71R FOG
CAMBRIDGE*     CLOUDY    57  55  94 NW6       29.70R
EASTON*        DRIZZLE   57  55  94 N6        29.73R FOG

$$

MDZ017>025-261200-
SOUTHERN MARYLAND

CITY           SKY/WX    TMP DP  RH WIND       PRES   REMARKS
PATUXENT RIVER CLOUDY    57  57 100 N10       29.70R
ST INIGOES     NOT AVBL
LEONARDTOWN*   CLOUDY    55  54  94 NW5       29.73R

$$

MDZ003>005-261200-
NORTH CENTRAL MARYLAND

CITY           SKY/WX    TMP DP  RH WIND       PRES   REMARKS
FREDERICK*     CLOUDY   N/A N/A N/A CALM      29.77  FOG
HAGERSTOWN APT CLOUDY    56  55  97 N7        29.75S FOG
WESTMINSTER*   MIX PCPN  55  55 100 N6        29.73R

$$

MDZ501>502-261200-
WESTERN MARYLAND

CITY           SKY/WX    TMP DP  RH WIND       PRES   REMARKS
OAKLAND*       FOG       45  45 100 CALM      29.79R VSB 1/2
CUMBERLAND*    CLOUDY    55  55 100 CALM      29.82R

$$

VAZ025>031-261200-
SHENANDOAH VALLEY

CITY           SKY/WX    TMP DP  RH WIND       PRES   REMARKS
WINCHESTER*    CLOUDY    54  52  94 NW3       29.77R FOG
FRONT ROYAL*   CLOUDY    54  54 100 CALM      29.77R
LURAY*         FOG       52  52 100 CALM      29.77R VSB<1/4
NEW MARKET*    CLOUDY    50  49  96 CALM      29.77R VSB 1/4
STAUNTON*      CLOUDY    48  48 100 CALM      29.80R
WAYNESBORO*    MOCLDY    51  51 100 W5        29.78R

$$

WVZ021-048>050-054>055-261200-
EASTERN WEST VIRGINIA PANHANDLE

CITY           SKY/WX    TMP DP  RH WIND       PRES   REMARKS
MARTINSBURG    CLOUDY    55  54  96 NW3       29.75R FOG
PETERSBURG*    CLOUDY    55  55  99 CALM      29.79S FOG

$$

VAZ036>039-050-261200-
CENTRAL FOOTHILLS

CITY           SKY/WX    TMP DP  RH WIND       PRES   REMARKS
CHARLOTTESVILL CLEAR     53  52  96 SW3       29.74R
CULPEPER*      PTCLDY    56  56  97 N5        29.76R
ORANGE*        CLOUDY    54  54 100 CALM      29.76R
GORDONSVILLE*  CLOUDY    53  53 100 CALM      29.75R
WARRENTON*     CLOUDY    58  54  85 N7        29.75R

$$

VAZ055>057-261200-
NORTH AND CENTRAL PIEDMONT

CITY           SKY/WX    TMP DP  RH WIND       PRES   REMARKS
FREDERICKSBRG* CLOUDY    58  58 100 NW3       29.73R
STAFFORD*      CLOUDY    56  56 100 NW8       29.78R FOG

$$

NCZ024-NYZ072-PAZ021-071-VAZ022-071-261200-
OTHER REGIONAL OBSERVATIONS

CITY           SKY/WX    TMP DP  RH WIND       PRES   REMARKS
NEW YORK CITY  LGT RAIN  54  53  97 VRB7      29.78S FOG
PHILADELPHIA   CLOUDY    57  55  93 NE13      29.71R
PITTSBURGH     PTCLDY    49  49 100 CALM      29.76F
ROANOKE        PTCLDY    52  52 100 NE3       29.81R
RICHMOND       DRZL/FOG  58  58 100 NW6       29.74R VSB 1
RALEIGH        PTCLDY    56  55  97 CALM      29.80R

$$

ANZ530>537-261200-
MARINE OBSERVATIONS

STATION/POSITION TIME  TEMP    WIND        PRES
                       AIR SEA DIR/SP/G
                 (UTC) (F)     (DEG/KT/KT) (MB)
THOMAS PT LIGHT  1100   57 56  350/ 10/ 11   N/A
BALT KEY BRIDGE  1048   57     340/  8/ 10 1005.8R
COVE POINT       1048   57     350/ 15/ 16 1006.3R
LEWISETTA        1048   58 61  310/  8/  9 1005.6R
SOLOMONS ISLAND  1048   57 60  330/  7/  9   N/A
PINEY POINT      1048          340/ 11/ 12   N/A

$$





USA.gov is the U.S. government's official web portal to all federal, state and local government web resources and services.